sat.trackr.live / text

‹ back to catalog

FLOCK 4H-35

NORAD 66738 · 2025-276CA

PAYLOAD ACTIVE UNKNOWN

§ Identity

Operator
Country
US
Launch date
2025-11-28
Launch site
AFWTR
Launch vehicle
Mass (kg)
RCS (m²)

Purposes: earth_obs

External: N2YO · Heavens-Above · Gunter

§ Orbital elements

Epoch: 2026-09-20T03:39:16.693056Z

Period
94.64 min
Inclination
97.4116°
Eccentricity
0.0001216
Mean motion
15.21623262 rev/d
Perigee alt
500.1 km
Apogee alt
501.8 km
Semi-major
6,879.1 km
B*
1.7416e-4
RAAN
335.4891°
Arg perigee
16.3174°
Mean anomaly
343.8101°
Rev number
4,416

§ Raw data

FLOCK 4H-351 66738U 25276CA  26263.15227654  .00003863  00000+0  17416-3 0  99942 66738  97.4116 335.4891 0001216  16.3174 343.8101 15.21623262 44160

JSON: /api/v1/satellites/66738 · /tle

For live sub-satellite position, see the globe view (requires WebGL).

§ Visibility from observer

Set your observer location to see the next 7 days of passes ≥ 10°. The values pass through the URL so the page stays shareable.

No JS? Fill the form by hand. The geolocation button needs JavaScript.